Location: LDNL
(36.4545°S, 141.6685°E)
Time: 09:40:40
(UTC+10:00)

Vanguard 1 - Pass Details

Date: 15 August 2022
Orbit: 649 x 3832 km, 34.2° (Epoch: 27 September)

Event Time Altitude Azimuth Distance (km) Brightness Sun altitude
Rises 19:00:06 0° 267° (W) 3,998 15.0 -12.7°
Reaches altitude 10° 19:03:21 10° 270° (W) 2,687 13.8 -13.3°
Maximum altitude 19:09:07 63° 349° (N) 806 9.7 -14.5°
Enters shadow 19:12:09 20° 67° (ENE) 1,520 10.5 -15.1°
